Back to catalog

OPS 4682 DEB

AlivePO
NORAD 38380·DEBRIS·🇺🇸 United States

Launched Apr 3, 1965 from Vandenberg Space Force Base

Loading…

Next Passes (next 24 hours)

TLE

FreshSource: Space-Track

Epoch: Sep 14, 2026, 03:42 UTC

1 38380U 65027CH  26257.15450441 -.00000244  00000-0 -83793-3 0  9993
2 38380  90.2591 323.3660 0021989  96.8549 263.5076 12.99913836589173

Track OPS 4682 DEB in real time with AllMySat

Download on the App Store